This is the latest recevied weather packets stored in our database for station/object DJ6OI-23. If no packets are shown the sender has not sent any weather packets the latest 10 day(s).
| Time | Temp. | Humidity | Pressure | Rain* | Wind** | Luminosity | Snow |
|---|---|---|---|---|---|---|---|
| 1777478175 | 19.44° C | 24% | 1006.5 hPa | 0 mm | - | - | - |
| 1777477240 | 18.33° C | 25% | 1006.4 hPa | 0 mm | - | - | - |
| 1777476305 | 17.22° C | 28% | 1006.4 hPa | 0 mm | - | - | - |
| 1777475370 | 16.67° C | 28% | 1006.4 hPa | 0 mm | - | - | - |
| 1777474435 | 16.67° C | 29% | 1006.5 hPa | 0 mm | - | - | - |
| 1777473500 | 16.67° C | 29% | 1006.4 hPa | 0 mm | - | - | - |
| 1777472565 | 16.67° C | 27% | 1006.5 hPa | 0 mm | - | - | - |
| 1777471630 | 16.67° C | 28% | 1006.4 hPa | 0 mm | - | - | - |
| 1777470696 | 16.67° C | 27% | 1006.5 hPa | 0 mm | - | - | - |
| 1777469761 | 16.67° C | 28% | 1006.5 hPa | 0 mm | - | - | - |
| 1777468826 | 16.67° C | 28% | 1006.4 hPa | 0 mm | - | - | - |
| 1777467891 | 16.11° C | 28% | 1006.5 hPa | 0 mm | - | - | - |
| 1777466956 | 16.67° C | 28% | 1006.6 hPa | 0 mm | - | - | - |
| 1777466021 | 16.11° C | 28% | 1006.5 hPa | 0 mm | - | - | - |
| 1777465086 | 16.11° C | 27% | 1006.7 hPa | 0 mm | - | - | - |
| 1777464151 | 16.11° C | 28% | 1006.7 hPa | 0 mm | - | - | - |
| 1777463216 | 16.11° C | 25% | 1006.6 hPa | 0 mm | - | - | - |
| 1777462281 | 15.56° C | 29% | 1006.6 hPa | 0 mm | - | - | - |
| 1777461346 | 15° C | 34% | 1006.6 hPa | 0 mm | - | - | - |
| 1777460412 | 15° C | 34% | 1006.7 hPa | 0 mm | - | - | - |
| 1777459477 | 15° C | 36% | 1006.8 hPa | 0 mm | - | - | - |
| 1777458542 | 15° C | 35% | 1006.9 hPa | 0 mm | - | - | - |
| 1777457607 | 14.44° C | 36% | 1006.9 hPa | 0 mm | - | - | - |
| 1777456672 | 14.44° C | 36% | 1006.9 hPa | 0 mm | - | - | - |
| 1777455737 | 13.89° C | 36% | 1007 hPa | 0 mm | - | - | - |
* Rain latest hour (hover to see other rain measurements)
** Current wind speed in m/s (hover to see current wind gust speed)